Chignik, AK

5:23 PM AKST on January 16, 2018 (GMT -0900)
Chignik

Weather History for PAJC - April, 2014

Change the Weather History Date:

Sunday, April 13, 2014

  Actual Average Record
Temperature  
Mean Temperature 39 °F -  
Max Temperature 41 °F 38 °F 50 °F (2016)
Min Temperature 37 °F 30 °F 19 °F (2013)
Degree Days  
Heating Degree Days 26    
Moisture  
Dew Point 33 °F    
Average Humidity 78    
Maximum Humidity 87    
Minimum Humidity 56    
Precipitation  
Precipitation 1.26 in - - ()
Sea Level Pressure  
Sea Level Pressure 29.71 in    
Wind  
Wind Speed 7 mph (SE)    
Max Wind Speed 22 mph    
Max Gust Speed 44 mph    
Visibility 10 miles    
Events      
Averages and records for this station are not official NWS values.
T = Trace of Precipitation, MM = Missing Value Source: NWS Daily Summary

Daily Weather History Graph

Daily Weather History Graph

Search for Another Location

Airport or City:

Trip Planner

Search our weather history database for the weather conditions in past years. The results will help you decide how hot, cold, wet, or windy it might be!

Date:

Astronomy

Apr. 13, 2014 Rise Set
Actual Time 7:31 AM AKDT 9:37 PM AKDT
Civil Twilight 6:51 AM AKDT 10:18 PM AKDT
Nautical Twilight 6:00 AM AKDT 11:09 PM AKDT
Astronomical Twilight 4:59 AM AKDT 12:11 AM AKDT
Moon 8:15 PM AKDT (4/13) 6:53 AM AKDT (4/13)
Length of Visible Light 15h 26m
Length of Day
14h 05m
Waxing Gibbous, 98% of the Moon is Illuminated
Apr 13
Waxing Gibbous
Apr 14
Full
Apr 21
Last Quarter
Apr 28
New
May 6
First Quarter

Hourly Weather History & Observations

Time (AKDT) Temp. Windchill Dew Point Humidity Pressure Visibility Wind Dir Wind Speed Gust Speed Precip Events Conditions
12:16 AM 39.2 °F 37.0 °F 33.8 °F 81% 29.63 in 10.0 mi SE 3.5 mph - N/A   Overcast
12:36 AM 39.2 °F - 35.6 °F 87% 29.64 in 10.0 mi Calm Calm - N/A   Overcast
12:56 AM 39.2 °F - 33.8 °F 81% 29.64 in 10.0 mi Calm Calm - N/A   Overcast
1:16 AM 39.2 °F 37.0 °F 33.8 °F 81% 29.64 in 10.0 mi SW 3.5 mph - N/A   Overcast
1:36 AM 39.2 °F - 33.8 °F 81% 29.65 in 10.0 mi Calm Calm - N/A   Overcast
1:56 AM 39.2 °F - 33.8 °F 81% 29.65 in 10.0 mi Calm Calm - N/A   Overcast
2:16 AM 39.2 °F 33.6 °F 33.8 °F 81% 29.66 in 10.0 mi WSW 8.1 mph - N/A   Overcast
2:36 AM 39.2 °F 32.0 °F 32.0 °F 75% 29.66 in 10.0 mi WSW 11.5 mph - N/A   Overcast
2:56 AM 39.2 °F 30.8 °F 32.0 °F 75% 29.66 in 10.0 mi WSW 15.0 mph - N/A   Overcast
3:16 AM 41.0 °F 34.3 °F 33.8 °F 76% 29.67 in 10.0 mi WSW 11.5 mph - N/A   Overcast
3:36 AM 41.0 °F 34.7 °F 33.8 °F 76% 29.67 in 10.0 mi SW 10.4 mph - N/A   Overcast
3:56 AM 41.0 °F 37.1 °F 33.8 °F 76% 29.68 in 10.0 mi WSW 5.8 mph - N/A   Overcast
4:16 AM 41.0 °F 36.4 °F 33.8 °F 76% 29.68 in 10.0 mi West 6.9 mph - N/A   Overcast
4:36 AM 41.0 °F 36.4 °F 32.0 °F 70% 29.69 in 10.0 mi WSW 6.9 mph - N/A   Overcast
4:56 AM 41.0 °F 36.4 °F 32.0 °F 70% 29.69 in 10.0 mi West 6.9 mph - N/A   Overcast
5:16 AM 39.2 °F - 33.8 °F 81% 29.69 in 10.0 mi Calm Calm - N/A   Overcast
5:36 AM 39.2 °F 33.6 °F 33.8 °F 81% 29.70 in 10.0 mi WSW 8.1 mph - N/A   Mostly Cloudy
5:56 AM 39.2 °F - 33.8 °F 81% 29.70 in 10.0 mi Calm Calm - N/A   Mostly Cloudy
6:16 AM 37.4 °F - 33.8 °F 87% 29.71 in 10.0 mi Calm Calm - N/A   Mostly Cloudy
6:36 AM 37.4 °F 32.8 °F 30.2 °F 75% 29.70 in 10.0 mi NE 5.8 mph - N/A   Mostly Cloudy
6:56 AM 37.4 °F - 32.0 °F 81% 29.72 in 10.0 mi Calm Calm - N/A   Mostly Cloudy
7:36 AM 37.4 °F - 33.8 °F 87% 29.73 in 10.0 mi Calm Calm - N/A   Scattered Clouds
7:56 AM 37.4 °F - 32.0 °F 81% 29.73 in 10.0 mi Calm Calm - N/A   Mostly Cloudy
8:16 AM 37.4 °F 34.9 °F 32.0 °F 81% 29.73 in 10.0 mi East 3.5 mph - N/A   Partly Cloudy
8:36 AM 37.4 °F 34.9 °F 32.0 °F 81% 29.74 in 10.0 mi ESE 3.5 mph - N/A   Mostly Cloudy
8:56 AM 37.4 °F - 32.0 °F 81% 29.74 in 10.0 mi Calm Calm - N/A   Overcast
9:16 AM 39.2 °F - 33.8 °F 81% 29.74 in 10.0 mi Calm Calm - N/A   Partly Cloudy
9:36 AM 39.2 °F 31.6 °F 28.4 °F 65% 29.74 in 10.0 mi SSE 12.7 mph - N/A   Clear
9:56 AM 41.0 °F 34.3 °F 26.6 °F 57% 29.75 in 10.0 mi SSE 11.5 mph 18.4 mph N/A   Clear
10:16 AM 41.0 °F 36.4 °F 26.6 °F 57% 29.75 in 10.0 mi SE 6.9 mph - N/A   Clear
10:36 AM 41.0 °F 35.2 °F 26.6 °F 57% 29.75 in 10.0 mi SE 9.2 mph - N/A   Clear
10:56 AM 39.2 °F 33.6 °F 24.8 °F 56% 29.76 in 10.0 mi SW 8.1 mph 26.5 mph N/A   Partly Cloudy
11:16 AM 39.2 °F 35.9 °F 28.4 °F 65% 29.76 in 10.0 mi SSE 4.6 mph - N/A   Mostly Cloudy
11:36 AM 39.2 °F 34.2 °F 30.2 °F 70% 29.76 in 10.0 mi SSE 6.9 mph - N/A   Overcast
11:56 AM 39.2 °F 31.6 °F 28.4 °F 65% 29.77 in 10.0 mi SSE 12.7 mph 25.3 mph N/A   Overcast
12:16 PM 41.0 °F 37.1 °F 28.4 °F 61% 29.77 in 10.0 mi SE 5.8 mph 19.6 mph N/A   Mostly Cloudy
12:36 PM 39.2 °F 32.0 °F 30.2 °F 70% 29.77 in 10.0 mi ESE 11.5 mph 18.4 mph N/A   Overcast
12:56 PM 39.2 °F 31.2 °F 30.2 °F 70% 29.76 in 10.0 mi ESE 13.8 mph 21.9 mph N/A   Overcast
1:16 PM 39.2 °F 37.0 °F 32.0 °F 75% 29.76 in 6.0 mi ENE 3.5 mph 19.6 mph N/A   Overcast
1:36 PM 39.2 °F 34.2 °F 32.0 °F 75% 29.76 in 10.0 mi East 6.9 mph 25.3 mph N/A   Overcast
1:56 PM 39.2 °F 32.0 °F 32.0 °F 75% 29.75 in 10.0 mi East 11.5 mph 21.9 mph N/A   Overcast
2:16 PM 39.2 °F 30.5 °F 33.8 °F 81% 29.75 in 10.0 mi ESE 16.1 mph 21.9 mph 0.01 in   Overcast
2:36 PM 39.2 °F 29.6 °F 33.8 °F 81% 29.74 in 9.0 mi ESE 19.6 mph 24.2 mph 0.03 in   Overcast
2:56 PM 39.2 °F 30.8 °F 33.8 °F 81% 29.74 in 9.0 mi SE 15.0 mph 23.0 mph 0.06 in   Overcast
3:16 PM 39.2 °F 31.6 °F 33.8 °F 81% 29.74 in 9.0 mi ESE 12.7 mph 25.3 mph 0.03 in   Overcast
3:36 PM 39.2 °F 30.8 °F 33.8 °F 81% 29.73 in 9.0 mi ESE 15.0 mph 24.2 mph 0.06 in   Overcast
3:56 PM 39.2 °F 31.2 °F 33.8 °F 81% 29.72 in 9.0 mi SE 13.8 mph 24.2 mph 0.09 in   Overcast
4:16 PM 39.2 °F 30.5 °F 35.6 °F 87% 29.71 in 9.0 mi ESE 16.1 mph 28.8 mph 0.03 in   Overcast
4:36 PM 41.0 °F 33.9 °F 35.6 °F 81% 29.71 in 9.0 mi SE 12.7 mph 27.6 mph 0.07 in   Overcast
4:56 PM 41.0 °F 33.5 °F 35.6 °F 81% 29.70 in 9.0 mi ESE 13.8 mph 23.0 mph 0.11 in   Overcast
5:16 PM 41.0 °F 31.9 °F 35.6 °F 81% 29.69 in 10.0 mi SE 19.6 mph 32.2 mph 0.03 in   Overcast
5:36 PM 41.0 °F 33.1 °F 35.6 °F 81% 29.68 in 9.0 mi ESE 15.0 mph 27.6 mph 0.08 in   Overcast
5:56 PM 41.0 °F 33.5 °F 35.6 °F 81% 29.68 in 9.0 mi ESE 13.8 mph 26.5 mph 0.11 in   Overcast
6:16 PM 41.0 °F 32.5 °F 35.6 °F 81% 29.68 in 10.0 mi SSE 17.3 mph 27.6 mph 0.04 in   Overcast
6:36 PM 41.0 °F 32.8 °F 35.6 °F 81% 29.68 in 9.0 mi ESE 16.1 mph 28.8 mph 0.08 in   Overcast
6:56 PM 41.0 °F 32.8 °F 35.6 °F 81% 29.68 in 10.0 mi SSE 16.1 mph 25.3 mph 0.11 in   Overcast
7:16 PM 41.0 °F 33.9 °F 35.6 °F 81% 29.67 in 8.0 mi SE 12.7 mph 25.3 mph 0.05 in   Overcast
7:36 PM 41.0 °F 32.5 °F 35.6 °F 81% 29.67 in 6.0 mi SE 17.3 mph 27.6 mph 0.09 in   Overcast
7:56 PM 39.2 °F 29.6 °F 35.6 °F 87% 29.67 in 10.0 mi SE 19.6 mph 28.8 mph 0.13 in   Overcast
8:16 PM 39.2 °F 29.8 °F 35.6 °F 87% 29.67 in 10.0 mi SE 18.4 mph 28.8 mph 0.03 in   Overcast
8:36 PM 39.2 °F 29.0 °F 35.6 °F 87% 29.67 in 9.0 mi SSE 21.9 mph 27.6 mph 0.07 in   Overcast
8:56 PM 39.2 °F 31.6 °F 35.6 °F 87% 29.67 in 9.0 mi SE 12.7 mph 25.3 mph 0.12 in   Overcast
9:16 PM 39.2 °F 29.3 °F 35.6 °F 87% 29.68 in 9.0 mi SE 20.7 mph 27.6 mph 0.04 in   Mostly Cloudy
9:36 PM 39.2 °F 30.2 °F 35.6 °F 87% 29.68 in 8.0 mi SSE 17.3 mph 28.8 mph 0.10 in   Overcast
9:56 PM 39.2 °F 30.5 °F 35.6 °F 87% 29.69 in 9.0 mi SSE 16.1 mph 27.6 mph 0.14 in   Mostly Cloudy
10:16 PM 39.2 °F 30.2 °F 33.8 °F 81% 29.69 in 10.0 mi SSE 17.3 mph 25.3 mph 0.06 in   Overcast
10:36 PM 39.2 °F 30.5 °F 35.6 °F 87% 29.70 in 9.0 mi SE 16.1 mph 43.7 mph 0.14 in   Overcast
10:56 PM 39.2 °F 31.2 °F 33.8 °F 81% 29.70 in 9.0 mi SE 13.8 mph 29.9 mph 0.20 in   Overcast
11:16 PM 39.2 °F 32.5 °F 33.8 °F 81% 29.71 in 10.0 mi SE 10.4 mph 21.9 mph 0.06 in   Overcast
11:36 PM 39.2 °F 32.0 °F 33.8 °F 81% 29.71 in 10.0 mi SE 11.5 mph 19.6 mph 0.12 in   Overcast
11:56 PM 39.2 °F 31.6 °F 33.8 °F 81% 29.71 in 10.0 mi SE 12.7 mph 20.7 mph 0.19 in   Overcast